Station Historical Data
Daily Summary for November 25, 2017 Units:  Metric    English   Both
« Previous Day
Next Day »
Daily Weekly Monthly Yearly Custom
  High: Low: Average:
Temperature: 11.1 °C 2.2 °C 7.8 °C
Dew Point: 6.2 °C -3.2 °C 1.7 °C
Humidity: 89% 40% 68%
Wind Speed: 27.4km/h 0km/h 8.2km/h
Wind Gust: 35.4km/h - -
Wind- - WSW
Pressure: 1012.8 hPa 1000.2 hPa -
Precipitation: 0 mm    
Historical Graphs
 
 
Tabular Data for November 25, 2017
Time Temperature Dew Point Pressure Wind Wind Speed Wind Gust Humidity Rainfall Rate (Hourly)
00:04 9.8 °C -3.2 °C 1002.9 hPa SSW 9.7 km/h 25.7 km/h 40% 0 mm
00:09 9.8 °C -3.2 °C 1002.9 hPa South 6.4 km/h 16.1 km/h 40% 0 mm
00:14 9.8 °C -3.2 °C 1002.9 hPa SSW 9.7 km/h 19.3 km/h 40% 0 mm
00:19 9.8 °C -3.2 °C 1002.9 hPa SSW 9.7 km/h 24.1 km/h 40% 0 mm
00:24 9.8 °C -3.2 °C 1002.6 hPa SSW 11.3 km/h 24.1 km/h 40% 0 mm
00:29 9.8 °C -3.2 °C 1002.6 hPa SSW 9.7 km/h 25.7 km/h 40% 0 mm
00:34 9.8 °C -3.2 °C 1002.6 hPa SSW 9.7 km/h 25.7 km/h 40% 0 mm
00:39 9.9 °C -3.1 °C 1002.6 hPa SSW 11.3 km/h 22.5 km/h 40% 0 mm
00:44 9.9 °C -3.1 °C 1002.3 hPa SSW 12.9 km/h 22.5 km/h 40% 0 mm
00:49 9.8 °C -2.9 °C 1002.3 hPa SSW 11.3 km/h 20.9 km/h 41% 0 mm
00:54 9.8 °C -3.2 °C 1002.3 hPa SSW 9.7 km/h 24.1 km/h 40% 0 mm
00:59 9.8 °C -3.2 °C 1002.3 hPa SSW 9.7 km/h 24.1 km/h 40% 0 mm
01:04 9.8 °C -2.9 °C 1002.3 hPa SSW 6.4 km/h 24.1 km/h 41% 0 mm
01:09 9.8 °C -3.2 °C 1002.3 hPa South 9.7 km/h 20.9 km/h 40% 0 mm
01:14 9.7 °C -2.9 °C 1002.3 hPa South 4.8 km/h 19.3 km/h 41% 0 mm
01:19 9.7 °C -2.9 °C 1002.3 hPa SW 19.3 km/h 25.7 km/h 41% 0 mm
01:24 9.7 °C -2.9 °C 1002.3 hPa SW 11.3 km/h 24.1 km/h 41% 0 mm
01:29 9.7 °C -2.9 °C 1001.9 hPa SSW 11.3 km/h 24.1 km/h 41% 0 mm
01:34 9.5 °C -3.1 °C 1001.9 hPa SSW 9.7 km/h 20.9 km/h 41% 0 mm
01:39 9.5 °C -3.1 °C 1001.9 hPa SSW 8 km/h 22.5 km/h 41% 0 mm
01:44 9.4 °C -2.9 °C 1001.9 hPa SSW 8 km/h 22.5 km/h 42% 0 mm
01:49 9.4 °C -3.2 °C 1001.9 hPa SSW 8 km/h 17.7 km/h 41% 0 mm
01:54 9.4 °C -3.2 °C 1001.6 hPa South 3.2 km/h 20.9 km/h 41% 0 mm
01:59 9.4 °C -2.8 °C 1001.6 hPa SSW 9.7 km/h 20.9 km/h 42% 0 mm
02:04 9.5 °C -3.1 °C 1001.6 hPa SSW 9.7 km/h 19.3 km/h 41% 0 mm
02:09 9.5 °C -3.1 °C 1001.9 hPa SSW 9.7 km/h 16.1 km/h 41% 0 mm
02:14 9.6 °C -3.1 °C 1001.9 hPa South 12.9 km/h 22.5 km/h 41% 0 mm
02:19 9.6 °C -3 °C 1001.9 hPa South 11.3 km/h 17.7 km/h 41% 0 mm
02:24 9.7 °C -2.9 °C 1001.9 hPa South 9.7 km/h 24.1 km/h 41% 0 mm
02:29 9.9 °C -3.1 °C 1001.9 hPa SSW 11.3 km/h 24.1 km/h 40% 0 mm
02:34 9.9 °C -2.7 °C 1001.9 hPa SSW 11.3 km/h 24.1 km/h 41% 0 mm
02:39 10 °C -3 °C 1001.9 hPa SSW 9.7 km/h 20.9 km/h 40% 0 mm
02:44 9.9 °C -2.7 °C 1001.9 hPa SSW 9.7 km/h 19.3 km/h 41% 0 mm
02:49 9.8 °C -2.9 °C 1001.9 hPa South 11.3 km/h 19.3 km/h 41% 0 mm
02:54 9.8 °C -2.9 °C 1001.9 hPa SSW 6.4 km/h 16.1 km/h 41% 0 mm
02:59 9.7 °C -2.6 °C 1001.9 hPa SSW 9.7 km/h 24.1 km/h 42% 0 mm
03:04 9.6 °C -2.7 °C 1001.9 hPa SSW 9.7 km/h 24.1 km/h 42% 0 mm
03:09 9.5 °C -2.8 °C 1001.9 hPa SW 3.2 km/h 16.1 km/h 42% 0 mm
03:14 9.4 °C -2.8 °C 1001.9 hPa SSE 3.2 km/h 14.5 km/h 42% 0 mm
03:19 9.4 °C -2.9 °C 1001.9 hPa SW 8 km/h 12.9 km/h 42% 0 mm
03:24 9.3 °C -2.6 °C 1001.6 hPa South 6.4 km/h 16.1 km/h 43% 0 mm
03:29 9.2 °C -2.7 °C 1001.6 hPa SSW 6.4 km/h 17.7 km/h 43% 0 mm
03:34 9.2 °C -2.8 °C 1001.6 hPa SSW 8 km/h 12.9 km/h 43% 0 mm
03:39 9.1 °C -2.8 °C 1001.6 hPa SSW 6.4 km/h 14.5 km/h 43% 0 mm
03:44 9.1 °C -2.9 °C 1001.2 hPa SSW 6.4 km/h 17.7 km/h 43% 0 mm
03:49 9 °C -2.6 °C 1001.2 hPa SSW 6.4 km/h 11.3 km/h 44% 0 mm
03:54 9.1 °C -2.6 °C 1001.2 hPa SSW 3.2 km/h 11.3 km/h 44% 0 mm
03:59 9 °C -2.6 °C 1001.2 hPa SSW 6.4 km/h 11.3 km/h 44% 0 mm
04:04 9 °C -2.6 °C 1001.2 hPa SSW 6.4 km/h 11.3 km/h 44% 0 mm
04:09 9 °C -2.6 °C 1000.9 hPa SSW 4.8 km/h 12.9 km/h 44% 0 mm
04:14 9 °C -2.6 °C 1000.9 hPa South 3.2 km/h 12.9 km/h 44% 0 mm
04:19 9.1 °C -2.6 °C 1000.9 hPa South 12.9 km/h 17.7 km/h 44% 0 mm
04:24 9.2 °C -2.4 °C 1000.9 hPa SW 3.2 km/h 17.7 km/h 44% 0 mm
04:29 9.2 °C -2.4 °C 1000.9 hPa SSW 4.8 km/h 14.5 km/h 44% 0 mm
04:34 9.2 °C -2.4 °C 1000.9 hPa SSW 6.4 km/h 14.5 km/h 44% 0 mm
04:39 9.2 °C -2.4 °C 1000.9 hPa SSW 6.4 km/h 12.9 km/h 44% 0 mm
04:44 9.3 °C -2.3 °C 1000.9 hPa SSW 6.4 km/h 12.9 km/h 44% 0 mm
04:49 9.4 °C -2.2 °C 1000.9 hPa SW 4.8 km/h 14.5 km/h 44% 0 mm
04:54 9.6 °C -2.1 °C 1000.9 hPa SW 4.8 km/h 14.5 km/h 44% 0 mm
04:59 9.6 °C -1.8 °C 1000.9 hPa South 6.4 km/h 11.3 km/h 45% 0 mm
05:04 9.6 °C -1.8 °C 1000.9 hPa SSW 6.4 km/h 14.5 km/h 45% 0 mm
05:09 9.6 °C -1.8 °C 1000.9 hPa SSW 6.4 km/h 14.5 km/h 45% 0 mm
05:14 9.5 °C -1.6 °C 1000.6 hPa South 11.3 km/h 12.9 km/h 46% 0 mm
05:19 9.6 °C -1.5 °C 1000.6 hPa South 4.8 km/h 12.9 km/h 46% 0 mm
05:29 9.7 °C -1.1 °C 1000.6 hPa SW 6.4 km/h 16.1 km/h 47% 0 mm
05:34 9.8 °C -1.3 °C 1000.6 hPa SSW 6.4 km/h 16.1 km/h 46% 0 mm
05:39 9.9 °C -0.8 °C 1000.6 hPa SSW 6.4 km/h 19.3 km/h 47% 0 mm
05:44 10.1 °C -0.4 °C 1000.6 hPa SW 8 km/h 19.3 km/h 48% 0 mm
05:49 10.2 °C -0.4 °C 1000.6 hPa SW 11.3 km/h 25.7 km/h 48% 0 mm
05:54 10.3 °C 0.3 °C 1000.6 hPa SW 9.7 km/h 25.7 km/h 50% 0 mm
05:59 10.4 °C 0.4 °C 1000.6 hPa SW 11.3 km/h 19.3 km/h 50% 0 mm
06:04 10.5 °C 0.5 °C 1000.2 hPa South 6.4 km/h 17.7 km/h 50% 0 mm
06:09 10.6 °C 0.6 °C 1000.2 hPa SW 9.7 km/h 20.9 km/h 50% 0 mm
06:14 10.7 °C 0.4 °C 1000.2 hPa SW 12.9 km/h 20.9 km/h 49% 0 mm
06:19 10.7 °C 0.4 °C 1000.2 hPa SW 17.7 km/h 25.7 km/h 49% 0 mm
06:24 10.8 °C 0.6 °C 1000.6 hPa South 6.4 km/h 22.5 km/h 49% 0 mm
06:29 10.8 °C 0.2 °C 1000.6 hPa South 4.8 km/h 24.1 km/h 48% 0 mm
06:34 10.8 °C 0.2 °C 1000.6 hPa WSW 12.9 km/h 25.7 km/h 48% 0 mm
06:39 10.8 °C 0.2 °C 1000.6 hPa SW 11.3 km/h 25.7 km/h 48% 0 mm
06:44 10.8 °C 0.6 °C 1000.9 hPa SW 12.9 km/h 27.4 km/h 49% 0 mm
06:49 10.8 °C 0.6 °C 1000.9 hPa WSW 8 km/h 25.7 km/h 49% 0 mm
06:54 10.9 °C 0.9 °C 1000.9 hPa SW 12.9 km/h 32.2 km/h 50% 0 mm
06:59 11 °C 0.9 °C 1000.9 hPa SW 11.3 km/h 22.5 km/h 50% 0 mm
07:04 11 °C 0.9 °C 1000.9 hPa SW 8 km/h 33.8 km/h 50% 0 mm
07:09 11.1 °C 1.3 °C 1001.2 hPa SW 16.1 km/h 33.8 km/h 51% 0 mm
07:14 11.1 °C 2.1 °C 1001.2 hPa SW 14.5 km/h 27.4 km/h 54% 0 mm
07:19 10.8 °C 3.1 °C 1001.6 hPa SW 12.9 km/h 25.7 km/h 59% 0 mm
07:24 10.3 °C 3.8 °C 1001.6 hPa WSW 16.1 km/h 24.1 km/h 64% 0.25 mm
07:29 9.8 °C 4.2 °C 1001.6 hPa West 20.9 km/h 25.7 km/h 68% 0.25 mm
07:34 9.5 °C 4.3 °C 1001.6 hPa WSW 12.9 km/h 29 km/h 70% 0.25 mm
07:39 9.2 °C 4.4 °C 1001.2 hPa WSW 14.5 km/h 29 km/h 72% 0.25 mm
07:44 9.2 °C 4.4 °C 1001.2 hPa WSW 12.9 km/h 27.4 km/h 72% 0.25 mm
07:49 9.2 °C 4.4 °C 1001.2 hPa WSW 16.1 km/h 33.8 km/h 72% 0.25 mm
07:54 9.3 °C 4.5 °C 1001.2 hPa SW 16.1 km/h 29 km/h 72% 0.25 mm
07:59 9.3 °C 4.3 °C 1001.2 hPa SW 11.3 km/h 29 km/h 71% 0.25 mm
08:04 9.4 °C 4.6 °C 1001.6 hPa SW 11.3 km/h 20.9 km/h 72% 0.25 mm
08:09 9.4 °C 4.7 °C 1001.6 hPa SW 22.5 km/h 29 km/h 72% 0.25 mm
08:14 9.4 °C 4.8 °C 1001.6 hPa WSW 12.9 km/h 29 km/h 73% 0.25 mm
08:19 9.4 °C 4.8 °C 1001.9 hPa SW 14.5 km/h 29 km/h 73% 0.25 mm
08:24 9.6 °C 4.9 °C 1001.9 hPa SW 14.5 km/h 35.4 km/h 73% 0 mm
08:29 9.7 °C 5.1 °C 1001.9 hPa West 16.1 km/h 33.8 km/h 73% 0 mm
08:34 9.7 °C 5.3 °C 1001.9 hPa WSW 14.5 km/h 35.4 km/h 74% 0 mm
08:39 9.6 °C 5.3 °C 1001.9 hPa West 16.1 km/h 30.6 km/h 75% 0 mm
08:44 9.4 °C 5.2 °C 1001.9 hPa WSW 12.9 km/h 30.6 km/h 75% 0 mm
08:49 9.2 °C 5 °C 1002.3 hPa WSW 27.4 km/h 27.4 km/h 75% 0 mm
08:54 9.1 °C 5.1 °C 1002.3 hPa WSW 17.7 km/h 30.6 km/h 76% 0 mm
08:59 8.9 °C 5.1 °C 1002.3 hPa SSW 9.7 km/h 27.4 km/h 77% 0 mm
09:04 8.8 °C 5.2 °C 1002.6 hPa West 14.5 km/h 19.3 km/h 78% 0 mm
09:09 8.8 °C 5.2 °C 1002.6 hPa WSW 12.9 km/h 25.7 km/h 78% 0 mm
09:14 8.7 °C 5.2 °C 1002.6 hPa WSW 12.9 km/h 25.7 km/h 79% 0 mm
09:19 8.6 °C 5.3 °C 1002.6 hPa WSW 14.5 km/h 27.4 km/h 80% 0 mm
09:24 8.6 °C 5.3 °C 1002.9 hPa WSW 14.5 km/h 27.4 km/h 80% 0 mm
09:29 8.6 °C 5.5 °C 1002.6 hPa WSW 12.9 km/h 25.7 km/h 81% 0 mm
09:34 8.6 °C 5.5 °C 1002.6 hPa SW 6.4 km/h 22.5 km/h 81% 0 mm
09:39 8.6 °C 5.5 °C 1002.6 hPa West 11.3 km/h 29 km/h 81% 0 mm
09:44 8.6 °C 5.6 °C 1002.6 hPa WSW 16.1 km/h 20.9 km/h 81% 0 mm
09:49 8.7 °C 5.6 °C 1002.6 hPa SW 8 km/h 16.1 km/h 81% 0 mm
09:54 8.6 °C 5.7 °C 1002.6 hPa SSW 11.3 km/h 19.3 km/h 82% 0 mm
09:59 8.7 °C 5.8 °C 1002.6 hPa SSW 4.8 km/h 19.3 km/h 82% 0 mm
10:04 8.8 °C 5.9 °C 1002.6 hPa WSW 9.7 km/h 16.1 km/h 82% 0 mm
10:09 8.8 °C 5.9 °C 1002.9 hPa WSW 8 km/h 16.1 km/h 82% 0 mm
10:14 8.8 °C 5.9 °C 1002.9 hPa WSW 9.7 km/h 24.1 km/h 82% 0 mm
10:19 8.8 °C 5.7 °C 1002.9 hPa WSW 11.3 km/h 24.1 km/h 81% 0 mm
10:24 8.8 °C 5.5 °C 1002.9 hPa WSW 11.3 km/h 24.1 km/h 80% 0 mm
10:29 8.8 °C 5.4 °C 1002.9 hPa WSW 9.7 km/h 24.1 km/h 79% 0 mm
10:34 8.8 °C 5.2 °C 1002.9 hPa WSW 6.4 km/h 20.9 km/h 78% 0 mm
10:39 8.8 °C 5.4 °C 1003.3 hPa West 9.7 km/h 20.9 km/h 79% 0 mm
10:44 8.7 °C 5.4 °C 1003.3 hPa West 8 km/h 22.5 km/h 80% 0 mm
10:49 8.5 °C 5.4 °C 1003.3 hPa West 9.7 km/h 19.3 km/h 81% 0.25 mm
10:54 8.3 °C 5.3 °C 1003.6 hPa WNW 6.4 km/h 22.5 km/h 81% 0.25 mm
10:59 8.2 °C 5.3 °C 1003.6 hPa West 3.2 km/h 19.3 km/h 82% 0.25 mm
11:04 8.1 °C 5.4 °C 1003.6 hPa WSW 6.4 km/h 19.3 km/h 83% 0.25 mm
11:09 7.9 °C 5.4 °C 1003.6 hPa West 9.7 km/h 22.5 km/h 84% 0.25 mm
11:14 7.8 °C 5.4 °C 1003.6 hPa West 9.7 km/h 22.5 km/h 85% 0.25 mm
11:19 7.8 °C 5.4 °C 1003.6 hPa West 9.7 km/h 19.3 km/h 85% 0.51 mm
11:24 7.7 °C 5.5 °C 1003.6 hPa West 9.7 km/h 19.3 km/h 86% 0.51 mm
11:29 7.7 °C 5.5 °C 1003.6 hPa West 9.7 km/h 17.7 km/h 86% 0.51 mm
11:34 7.6 °C 5.6 °C 1003.6 hPa WSW 8 km/h 12.9 km/h 87% 0.76 mm
11:39 7.6 °C 5.6 °C 1003.6 hPa West 4.8 km/h 14.5 km/h 87% 0.76 mm
11:44 7.5 °C 5.5 °C 1003.6 hPa WSW 8 km/h 16.1 km/h 87% 0.76 mm
11:49 7.5 °C 5.5 °C 1003.9 hPa West 8 km/h 14.5 km/h 87% 0.51 mm
11:54 7.5 °C 5.7 °C 1003.6 hPa West 6.4 km/h 12.9 km/h 88% 0.51 mm
11:59 7.5 °C 5.7 °C 1003.6 hPa West 6.4 km/h 14.5 km/h 88% 0.76 mm
12:04 7.6 °C 5.7 °C 1003.9 hPa West 6.4 km/h 17.7 km/h 88% 0.76 mm
12:09 7.6 °C 5.8 °C 1003.9 hPa WSW 6.4 km/h 17.7 km/h 89% 0.76 mm
12:14 7.6 °C 5.9 °C 1003.9 hPa West 6.4 km/h 11.3 km/h 89% 0.76 mm
12:19 7.7 °C 5.9 °C 1003.9 hPa West 4.8 km/h 11.3 km/h 89% 0.51 mm
12:24 7.7 °C 5.9 °C 1003.9 hPa WSW 4.8 km/h 8 km/h 89% 0.51 mm
12:29 7.7 °C 5.9 °C 1003.9 hPa West 6.4 km/h 14.5 km/h 89% 0.76 mm
12:39 7.6 °C 5.9 °C 1004.3 hPa WSW 3.2 km/h 9.7 km/h 89% 0.51 mm
12:44 7.6 °C 5.9 °C 1004.3 hPa WSW 4.8 km/h 12.9 km/h 89% 0.51 mm
12:49 7.6 °C 5.9 °C 1004.3 hPa WSW 6.4 km/h 12.9 km/h 89% 0.51 mm
12:54 7.7 °C 6 °C 1004.3 hPa WSW 4.8 km/h 12.9 km/h 89% 0.76 mm
12:59 7.8 °C 6.1 °C 1004.3 hPa West 4.8 km/h 6.4 km/h 89% 0.51 mm
13:04 7.9 °C 6.2 °C 1004.3 hPa WNW 6.4 km/h 8 km/h 89% 0.51 mm
13:09 7.9 °C 6.2 °C 1004.3 hPa West 4.8 km/h 6.4 km/h 89% 0.51 mm
13:14 7.9 °C 6.2 °C 1004.6 hPa West 3.2 km/h 8 km/h 89% 0.76 mm
13:19 7.8 °C 6.1 °C 1004.6 hPa West 4.8 km/h 11.3 km/h 89% 0.76 mm
13:24 7.8 °C 6.1 °C 1004.6 hPa WSW 4.8 km/h 11.3 km/h 89% 0.76 mm
13:29 7.8 °C 6.1 °C 1004.6 hPa West 4.8 km/h 9.7 km/h 89% 0.51 mm
13:34 7.8 °C 5.9 °C 1004.6 hPa West 3.2 km/h 12.9 km/h 88% 0.51 mm
13:39 7.8 °C 5.9 °C 1005 hPa West 3.2 km/h 11.3 km/h 88% 0.51 mm
13:44 7.7 °C 5.8 °C 1005 hPa WSW 6.4 km/h 11.3 km/h 88% 0.51 mm
13:49 7.8 °C 5.9 °C 1005 hPa WSW 4.8 km/h 11.3 km/h 88% 0.51 mm
13:54 7.8 °C 5.9 °C 1005 hPa WSW 4.8 km/h 11.3 km/h 88% 0.51 mm
13:59 7.8 °C 5.9 °C 1005 hPa WSW 4.8 km/h 11.3 km/h 88% 0.51 mm
14:04 7.8 °C 5.9 °C 1005 hPa WSW 4.8 km/h 9.7 km/h 88% 0.51 mm
14:09 7.7 °C 5.8 °C 1005 hPa West 1.6 km/h 11.3 km/h 88% 0.51 mm
14:14 7.7 °C 5.8 °C 1005 hPa WSW 4.8 km/h 9.7 km/h 88% 0.25 mm
14:19 7.6 °C 5.7 °C 1005 hPa WSW 3.2 km/h 9.7 km/h 88% 0.25 mm
14:24 7.6 °C 5.7 °C 1005 hPa WSW 3.2 km/h 9.7 km/h 88% 0.25 mm
14:29 7.6 °C 5.8 °C 1005 hPa WSW 4.8 km/h 9.7 km/h 89% 0.25 mm
14:34 7.5 °C 5.8 °C 1005.3 hPa SW 3.2 km/h 9.7 km/h 89% 0.25 mm
14:39 7.4 °C 5.7 °C 1005.3 hPa WSW 9.7 km/h 9.7 km/h 89% 0.25 mm
14:49 7.6 °C 5.8 °C 1005.3 hPa WSW 3.2 km/h 9.7 km/h 89% 0.25 mm
14:54 7.6 °C 5.9 °C 1005.3 hPa WSW 3.2 km/h 6.4 km/h 89% 0 mm
14:59 7.6 °C 5.7 °C 1005.3 hPa SW 3.2 km/h 6.4 km/h 88% 0 mm
15:04 7.6 °C 5.7 °C 1005.6 hPa Calm   6.4 km/h 88% 0 mm
15:09 7.6 °C 5.7 °C 1005.6 hPa Calm   6.4 km/h 88% 0 mm
15:14 7.6 °C 5.7 °C 1005.6 hPa West 1.6 km/h 6.4 km/h 88% 0 mm
15:19 7.6 °C 5.7 °C 1005.6 hPa Calm   6.4 km/h 88% 0 mm
15:24 7.6 °C 5.7 °C 1005.6 hPa West 3.2 km/h 9.7 km/h 88% 0 mm
15:29 7.5 °C 5.7 °C 1005.6 hPa West 4.8 km/h 11.3 km/h 88% 0 mm
15:34 7.5 °C 5.5 °C 1006 hPa West 4.8 km/h 11.3 km/h 87% 0 mm
15:39 7.5 °C 5.5 °C 1006 hPa West 11.3 km/h 11.3 km/h 87% 0 mm
15:44 7.4 °C 5.1 °C 1006 hPa North 3.2 km/h 14.5 km/h 85% 0 mm
15:49 7.3 °C 4.6 °C 1006.3 hPa NW 4.8 km/h 14.5 km/h 83% 0 mm
15:54 7.3 °C 4.4 °C 1006.3 hPa NW 6.4 km/h 14.5 km/h 82% 0 mm
15:59 7.3 °C 4.3 °C 1006.3 hPa NW 6.4 km/h 14.5 km/h 81% 0 mm
16:04 7.3 °C 4.1 °C 1006.7 hPa WNW 8 km/h 14.5 km/h 80% 0 mm
16:09 7.3 °C 3.9 °C 1006.7 hPa WNW 6.4 km/h 14.5 km/h 79% 0 mm
16:14 7.2 °C 3.8 °C 1006.7 hPa NW 9.7 km/h 17.7 km/h 79% 0 mm
16:19 7.3 °C 3.7 °C 1006.7 hPa West 9.7 km/h 16.1 km/h 78% 0 mm
16:24 7.2 °C 3.4 °C 1006.7 hPa WNW 14.5 km/h 19.3 km/h 77% 0 mm
16:29 7.2 °C 3.4 °C 1006.7 hPa WNW 9.7 km/h 19.3 km/h 77% 0 mm
16:34 7.1 °C 3.3 °C 1007 hPa WNW 8 km/h 19.3 km/h 77% 0 mm
16:39 7.1 °C 3.3 °C 1007 hPa WNW 8 km/h 14.5 km/h 77% 0 mm
16:44 7 °C 3.2 °C 1007 hPa NNW 3.2 km/h 17.7 km/h 77% 0 mm
16:49 6.9 °C 3 °C 1007 hPa West 6.4 km/h 12.9 km/h 76% 0 mm
16:54 6.9 °C 2.9 °C 1007 hPa WNW 4.8 km/h 12.9 km/h 76% 0 mm
16:59 6.9 °C 2.9 °C 1007.3 hPa WNW 6.4 km/h 12.9 km/h 76% 0 mm
17:04 6.8 °C 2.9 °C 1007.3 hPa WNW 6.4 km/h 12.9 km/h 76% 0 mm
17:09 6.8 °C 2.9 °C 1007.3 hPa WNW 6.4 km/h 11.3 km/h 76% 0 mm
17:14 6.8 °C 2.8 °C 1007.7 hPa WNW 6.4 km/h 11.3 km/h 76% 0 mm
17:19 6.8 °C 2.7 °C 1007.7 hPa West 3.2 km/h 11.3 km/h 75% 0 mm
17:24 6.7 °C 2.6 °C 1007.7 hPa WNW 3.2 km/h 16.1 km/h 75% 0 mm
17:29 6.7 °C 2.6 °C 1007.7 hPa WNW 1.6 km/h 6.4 km/h 75% 0 mm
17:34 6.7 °C 2.6 °C 1008 hPa WNW 3.2 km/h 9.7 km/h 75% 0 mm
17:39 6.6 °C 2.5 °C 1008 hPa West 11.3 km/h 16.1 km/h 75% 0 mm
17:44 6.6 °C 1.9 °C 1008 hPa NW 6.4 km/h 16.1 km/h 72% 0 mm
17:49 6.6 °C 1.9 °C 1008 hPa WNW 6.4 km/h 11.3 km/h 72% 0 mm
17:54 6.5 °C 1.8 °C 1008 hPa West 6.4 km/h 14.5 km/h 72% 0 mm
18:04 6.4 °C 1.8 °C 1008.4 hPa WNW 6.4 km/h 11.3 km/h 72% 0 mm
18:09 6.4 °C 1.8 °C 1008.4 hPa WNW 4.8 km/h 11.3 km/h 72% 0 mm
18:14 6.4 °C 1.4 °C 1008.4 hPa West 6.4 km/h 17.7 km/h 70% 0 mm
18:19 6.4 °C 1.4 °C 1008.7 hPa West 8 km/h 17.7 km/h 70% 0 mm
18:24 6.4 °C 1.4 °C 1008.7 hPa West 8 km/h 14.5 km/h 70% 0 mm
18:29 6.4 °C 1.3 °C 1009 hPa West 9.7 km/h 11.3 km/h 70% 0 mm
18:34 6.3 °C 1.3 °C 1009 hPa West 6.4 km/h 16.1 km/h 70% 0 mm
18:39 6.3 °C 1.1 °C 1009 hPa WNW 8 km/h 16.1 km/h 69% 0 mm
18:44 6.2 °C 0.7 °C 1009.4 hPa WNW 6.4 km/h 14.5 km/h 68% 0 mm
18:49 6.2 °C 0.6 °C 1009 hPa NW 3.2 km/h 17.7 km/h 67% 0 mm
18:54 6.1 °C 0.7 °C 1009 hPa WNW 6.4 km/h 11.3 km/h 68% 0 mm
18:59 6.1 °C 0.4 °C 1009 hPa WNW 3.2 km/h 12.9 km/h 67% 0 mm
19:04 6 °C 0.1 °C 1009 hPa WNW 6.4 km/h 17.7 km/h 66% 0 mm
19:09 6 °C 0.1 °C 1009 hPa West 6.4 km/h 17.7 km/h 66% 0 mm
19:14 6 °C -0.1 °C 1009 hPa West 6.4 km/h 16.1 km/h 65% 0 mm
19:19 6 °C 0.1 °C 1009 hPa West 6.4 km/h 16.1 km/h 66% 0 mm
19:24 5.9 °C -0.2 °C 1009.4 hPa West 4.8 km/h 11.3 km/h 65% 0 mm
19:29 5.8 °C -0.1 °C 1009.4 hPa West 6.4 km/h 11.3 km/h 66% 0 mm
19:34 5.8 °C -0.1 °C 1009.4 hPa West 6.4 km/h 14.5 km/h 66% 0 mm
19:44 5.8 °C -0.3 °C 1009.4 hPa WNW 9.7 km/h 22.5 km/h 65% 0 mm
19:49 5.8 °C -0.3 °C 1009.7 hPa WNW 9.7 km/h 22.5 km/h 65% 0 mm
19:54 5.8 °C -0.4 °C 1009.7 hPa WNW 9.7 km/h 14.5 km/h 64% 0 mm
19:59 5.8 °C -0.3 °C 1009.7 hPa West 3.2 km/h 12.9 km/h 65% 0 mm
20:04 5.8 °C -0.3 °C 1009.7 hPa West 4.8 km/h 12.9 km/h 65% 0 mm
20:09 5.8 °C -0.3 °C 1009.7 hPa West 6.4 km/h 14.5 km/h 65% 0 mm
20:14 5.8 °C -0.3 °C 1009.7 hPa WSW 6.4 km/h 16.1 km/h 65% 0 mm
20:19 5.8 °C -0.1 °C 1010 hPa WSW 6.4 km/h 16.1 km/h 66% 0 mm
20:24 5.7 °C 0.1 °C 1009.7 hPa WSW 4.8 km/h 12.9 km/h 67% 0 mm
20:29 5.7 °C 0 °C 1009.7 hPa WSW 3.2 km/h 11.3 km/h 67% 0 mm
20:34 5.7 °C 0.2 °C 1009.7 hPa WSW 4.8 km/h 16.1 km/h 68% 0 mm
20:39 5.6 °C 0.2 °C 1009.7 hPa WSW 4.8 km/h 16.1 km/h 68% 0 mm
20:44 5.7 °C 0.2 °C 1009.7 hPa WSW 4.8 km/h 11.3 km/h 68% 0 mm
20:49 5.6 °C 0.4 °C 1009.7 hPa WSW 6.4 km/h 11.3 km/h 69% 0 mm
20:54 5.6 °C 0.4 °C 1009.7 hPa WSW 6.4 km/h 14.5 km/h 69% 0 mm
20:59 5.6 °C 0.4 °C 1009.7 hPa West 3.2 km/h 14.5 km/h 69% 0 mm
21:04 5.6 °C 0.5 °C 1009.7 hPa West 8 km/h 14.5 km/h 70% 0 mm
21:09 5.6 °C 0.5 °C 1009.7 hPa WSW 6.4 km/h 14.5 km/h 70% 0 mm
21:14 5.5 °C 0.7 °C 1009.7 hPa WSW 4.8 km/h 12.9 km/h 71% 0 mm
21:19 5.4 °C 0.6 °C 1009.7 hPa WSW 3.2 km/h 11.3 km/h 71% 0 mm
21:24 5.4 °C 0.6 °C 1009.7 hPa WSW 6.4 km/h 11.3 km/h 71% 0 mm
21:29 5.4 °C 0.6 °C 1009.7 hPa SW 9.7 km/h 16.1 km/h 71% 0 mm
21:34 5.4 °C 0.7 °C 1010 hPa WSW 6.4 km/h 16.1 km/h 72% 0 mm
21:39 5.3 °C 0.5 °C 1010 hPa West 6.4 km/h 14.5 km/h 71% 0 mm
21:44 5.3 °C 0.5 °C 1010 hPa West 6.4 km/h 12.9 km/h 71% 0 mm
21:49 5.3 °C 0.7 °C 1010 hPa West 3.2 km/h 14.5 km/h 72% 0 mm
21:54 5.3 °C 0.5 °C 1010 hPa West 6.4 km/h 17.7 km/h 71% 0 mm
21:59 5.4 °C 0.7 °C 1010 hPa West 4.8 km/h 20.9 km/h 72% 0 mm
22:04 5.3 °C 0.7 °C 1010 hPa West 8 km/h 20.9 km/h 72% 0 mm
22:09 5.3 °C 0.6 °C 1010 hPa West 8 km/h 22.5 km/h 72% 0 mm
22:14 5.3 °C 0.8 °C 1010 hPa West 12.9 km/h 17.7 km/h 73% 0 mm
22:19 5.2 °C 0.8 °C 1010 hPa NW 20.9 km/h 24.1 km/h 73% 0 mm
22:24 5.2 °C 0.8 °C 1010.4 hPa WNW 9.7 km/h 24.1 km/h 73% 0.25 mm
22:34 5.2 °C 1.2 °C 1010.4 hPa West 14.5 km/h 29 km/h 75% 0.25 mm
22:39 5.1 °C 1.1 °C 1010.7 hPa West 16.1 km/h 32.2 km/h 75% 0.25 mm
22:44 4.7 °C 0.8 °C 1011.1 hPa WNW 16.1 km/h 32.2 km/h 76% 0.25 mm
22:49 4 °C 0.3 °C 1011.4 hPa NNW 14.5 km/h 27.4 km/h 77% 0.25 mm
22:54 3.5 °C 0.4 °C 1011.4 hPa WNW 4.8 km/h 16.1 km/h 80% 0.25 mm
22:59 3.2 °C 0.4 °C 1011.4 hPa WNW 12.9 km/h 20.9 km/h 82% 0.25 mm
23:04 3.1 °C 0.4 °C 1011.7 hPa West 9.7 km/h 24.1 km/h 83% 0.25 mm
23:09 3 °C 0.6 °C 1011.7 hPa WNW 11.3 km/h 24.1 km/h 84% 0.25 mm
23:14 2.9 °C 0.5 °C 1011.7 hPa WNW 12.9 km/h 25.7 km/h 84% 0.25 mm
23:19 2.9 °C 0.4 °C 1011.7 hPa WNW 14.5 km/h 24.1 km/h 84% 0.51 mm
23:24 2.7 °C 0.3 °C 1011.7 hPa NW 8 km/h 32.2 km/h 84% 0.25 mm
23:29 2.5 °C 0.1 °C 1011.7 hPa NW 9.7 km/h 33.8 km/h 84% 0.25 mm
23:34 2.3 °C -0.2 °C 1011.7 hPa NW 12.9 km/h 33.8 km/h 84% 0.25 mm
23:39 2.2 °C -0.4 °C 1012.1 hPa NNW 8 km/h 19.3 km/h 83% 0.25 mm
23:44 2.2 °C -0.4 °C 1012.1 hPa NW 8 km/h 19.3 km/h 83% 0.25 mm
23:54 2.2 °C -0.4 °C 1012.4 hPa WNW 11.3 km/h 19.3 km/h 83% 0.25 mm
23:59 2.2 °C -0.4 °C 1012.8 hPa West 16.1 km/h 19.3 km/h 83% 0.25 mm
Buffalo, New York, USA
Compliments of Weather Underground - 2.5 mb